Погода в Комсомольском

Россия / Кабардино-Балкарская Республика     43°51′45″N   43°56′11″E
темп.,
°C
ветер,
м/с
пор.,
м/с
влажн.,
%
обл.,
%
осадки,
мм/ч
давл.,
гПа
погр.,
м
4 июля, пн
пн400:00+16з36639 0.0 101591
03:00+16юз226014 0.0 101522
06:00+17зюз24595 0.0 1016114
09:00+24зсз23405 0.0 10161012
12:00+27ссз333135 0.0 10152742
15:00+28ссз33295 0.0 10142729
18:00+27сз34370 0.0 1014234
21:00+21з224530 0.0 101414
5 июля, вт
вт500:00+18зюз33600 0.0 101438
03:00+16юз33650 0.0 101425
06:00+18юз24610 0.0 1015102
09:00+26зсз23390 0.0 1015776
12:00+30сз23293 0.0 10142838
15:00+31сз442739 0.0 10123075
18:00+28ссз353723 0.0 1013413
21:00+22св355036 0.0 101465
6 июля, ср
ср600:00+20св224493 0.0 101525
03:00+19с11392 0.0 101511
06:00+19ссв11470 0.0 101653
09:00+25в34370 0.0 1016830
12:00+29в55280 0.0 10152051
15:00+30всв56260 0.0 10132527
18:00+28всв683134 0.0 1012762
21:00+23в713402 0.0 1014677
7 июля, чт
чт700:00+17вюв33590 0.0 101537
03:00+15всв36710 0.0 1014105
06:00+16всв47820 0.0 1015313
09:00+22в676028 0.0 10141025
12:00+27в674435 0.0 10131807
15:00+30в773519 0.0 10112350
18:00+27в783930 0.0 10111279
21:00+22в612454 0.0 1013482
8 июля, пт
пт800:00+17всв49590 0.0 1013271
03:00+15всв23714 0.0 101342
06:00+16ссв11705 0.0 1013153
09:00+22всв23585 0.0 1012732
12:00+27в44460 0.0 10111330
15:00+31юв343744 0.0 10091948
18:00+30юв2437100 0.0 1009935
21:00+24в61136100 0.0 1011492